Location: *
(48.8780°N, 19.2358°E)
Time: 02:55:21
(UTC+00:00)

STARLINK-24 - Pass Details

Date: 18 October 2019
Orbit: 550 x 553 km, 53.0° (Epoch: 19 November)

Event Time Altitude Azimuth Distance (km) Brightness Sun altitude
Rises 16:02:41 0° 244° (WSW) 2,714 9.1 -3.1°
Reaches altitude 10° 16:04:55 10° 244° (WSW) 1,822 7.9 -3.5°
Maximum altitude 16:09:04 89° 336° (NNW) 556 3.7 -4.2°
Drops below altitude 10° 16:13:14 10° 66° (ENE) 1,830 5.7 -4.8°
Enters shadow 16:14:12 - 66° (ENE) 2,216 6.1 -5.0°
